Location: Wanzleben
(52.0609°N, 11.4408°E)
Time: 10:23:45
(UTC+00:00)

COSMOS 2406 - Visible Passes

Search period start: 17 January 2021 00:00
Search period end: 27 January 2021 00:00
Orbit: 840 x 866 km, 71.0° (Epoch: 16 January)

Date Brightness Start Highest point End Pass type
(mag) Time Alt. Az. Time Alt. Az. Time Alt. Az.
17 Jan 5.1 16:16:18 10° NNW 16:19:05 13° NNE 16:21:52 10° NE visible
17 Jan 4.2 18:00:17 10° NNW 18:04:54 30° NNE 18:04:54 30° NNE visible
17 Jan 5.0 19:44:27 10° NW 19:47:00 27° NW 19:47:00 27° NW visible
18 Jan 4.0 17:48:48 10° NNW 17:53:55 31° NE 17:54:05 31° NE visible
18 Jan 4.6 19:32:58 10° NW 19:36:10 34° NW 19:36:10 34° NW visible
19 Jan 4.0 17:37:18 10° NNW 17:42:27 31° NE 17:43:20 30° ENE visible
19 Jan 4.2 19:21:29 10° NW 19:25:26 44° NW 19:25:26 44° NW visible
20 Jan 4.0 17:25:48 10° NNW 17:30:58 32° NE 17:32:43 27° ENE visible
20 Jan 3.7 19:09:59 10° NW 19:14:49 58° WNW 19:14:49 58° WNW visible
20 Jan 6.1 20:56:27 10° WNW 20:56:55 11° WNW 20:56:55 11° WNW visible
21 Jan 4.0 17:14:18 10° NNW 17:19:29 32° NE 17:22:13 22° E visible
21 Jan 3.4 18:58:30 10° NW 19:04:16 67° WSW 19:04:20 67° WSW visible
21 Jan 6.0 20:45:01 10° WNW 20:46:27 12° W 20:46:27 12° W visible
22 Jan 4.0 17:02:49 10° NNW 17:08:00 32° NE 17:11:54 16° E visible
22 Jan 3.5 18:47:01 10° NW 18:52:46 67° WSW 18:54:02 52° S visible
22 Jan 5.9 20:33:34 10° WNW 20:35:58 13° W 20:36:10 13° W visible
23 Jan 4.0 16:51:19 10° NNW 16:56:30 32° NE 17:01:39 10° ESE visible
23 Jan 3.5 18:35:31 10° NW 18:41:16 66° WSW 18:44:00 31° S visible
23 Jan 5.9 20:22:08 10° WNW 20:24:28 13° W 20:26:10 11° WSW visible
24 Jan 4.0 16:39:49 10° NNW 16:45:02 32° NE 16:50:11 10° ESE visible
24 Jan 3.6 18:24:02 10° NW 18:29:47 65° WSW 18:34:24 16° SSE visible
24 Jan 6.0 20:10:42 10° WNW 20:12:58 12° W 20:15:13 10° WSW visible
25 Jan 4.0 16:28:20 10° NNW 16:33:32 33° NE 16:38:42 10° ESE visible
25 Jan 3.6 18:12:32 10° NW 18:18:17 65° WSW 18:23:57 10° SSE visible
25 Jan 6.0 19:59:16 10° WNW 20:01:27 12° W 20:03:38 10° WSW visible
26 Jan 3.7 18:01:03 10° NW 18:06:47 64° WSW 18:12:27 10° SSE visible
26 Jan 6.1 19:47:50 10° WNW 19:49:57 12° W 19:52:03 10° WSW visible
